Location: Unspecified
(46.0725°N, 13.7344°E)
Time: 19:19:44
(UTC+01:00)

Cosmos 2058 - Pass Details

Date: 31 October 2019
Orbit: 563 x 583 km, 82.5° (Epoch: 14 November)

Event Time Altitude Azimuth Distance (km) Brightness Sun altitude
Rises 05:45:32 0° 146° (SSE) 2,786 7.1 -10.6°
Reaches altitude 10° 05:48:19 10° 127° (SE) 1,896 6.7 -10.1°
Maximum altitude 05:51:04 17° 86° (E) 1,490 6.2 -9.6°
Drops below altitude 10° 05:53:49 10° 45° (NE) 1,910 6.1 -9.2°
Sets 05:56:37 0° 25° (NNE) 2,817 6.6 -8.7°
